Weather History for Nancy, France

Change the Weather History Date:

Tuesday, November 26, 2013

  Actual Average Record
Temperature  
Mean Temperature 32 °F -  
Max Temperature 39 °F 38 °F 59 °F (2006)
Min Temperature 24 °F 32 °F 24 °F (2013)
Degree Days  
Heating Degree Days 34    
Moisture  
Dew Point 28 °F    
Average Humidity 81    
Maximum Humidity 93    
Minimum Humidity 61    
Precipitation  
Precipitation 0.00 in 0.09 in - ()
Sea Level Pressure  
Sea Level Pressure 30.50 in    
Wind  
Wind Speed 6 mph ()    
Max Wind Speed 12 mph    
Max Gust Speed -    
Visibility 6.0 miles    
Events      
Averages and records for this station are not official NWS values.
T = Trace of Precipitation, MM = Missing Value Source: Averaged Metar Reports

Daily Weather History Graph

Daily Weather History Graph

Search for Another Location

Airport:

Trip Planner

Search our weather history database for the weather conditions in past years. The results will help you decide how hot, cold, wet, or windy it might be!

Date:

Astronomy

Nov. 26, 2013 Rise Set
Actual Time 7:59 AM CET 4:44 PM CET
Civil Twilight 7:24 AM CET 5:20 PM CET
Nautical Twilight 6:45 AM CET 5:59 PM CET
Astronomical Twilight 6:07 AM CET 6:37 PM CET
Moon 12:14 AM CET (11/26) 1:14 PM CET (11/26)
Length of Visible Light 9h 56m
Length of Day
8h 44m
Last Quarter, 44% of the Moon is Illuminated
Nov 26
Last Quarter
Dec 3
New
Dec 9
First Quarter
Dec 17
Full
Dec 25
Last Quarter

Hourly Weather History & Observations

Time (CET) Temp. Windchill Dew Point Humidity Pressure Visibility Wind Dir Wind Speed Gust Speed Precip Events Conditions
12:00 AM 37.4 °F 30.3 °F 32.0 °F 81% 30.42 in 6.2 mi North 10.4 mph - N/A   Overcast
12:30 AM 37.4 °F 30.3 °F 32.0 °F 81% 30.42 in 6.2 mi North 10.4 mph - N/A   Mostly Cloudy
1:00 AM 35.6 °F 28.6 °F 30.2 °F 81% 30.42 in 6.2 mi North 9.2 mph - N/A   Partly Cloudy
1:30 AM 35.6 °F 27.5 °F 30.2 °F 81% 30.42 in 6.2 mi NNE 11.5 mph - N/A   Overcast
2:00 AM 35.6 °F 28.0 °F 30.2 °F 81% 30.45 in 6.2 mi NNE 10.4 mph - N/A   Overcast
2:30 AM 35.6 °F 29.2 °F 30.2 °F 81% 30.45 in 6.2 mi NNE 8.1 mph - N/A   Overcast
3:00 AM 35.6 °F 29.2 °F 30.2 °F 81% 30.45 in 6.2 mi NNE 8.1 mph - N/A   Overcast
3:30 AM 35.6 °F 28.6 °F 32.0 °F 87% 30.45 in 6.2 mi NE 9.2 mph - N/A   Overcast
4:00 AM 35.6 °F 29.9 °F 32.0 °F 87% 30.45 in 6.2 mi NE 6.9 mph - N/A   Overcast
4:30 AM 33.8 °F 27.7 °F 30.2 °F 87% 30.45 in 6.2 mi NE 6.9 mph - N/A   Overcast
5:00 AM 33.8 °F 28.6 °F 30.2 °F 87% 30.48 in 6.2 mi NE 5.8 mph - N/A   Mostly Cloudy
5:30 AM 32.0 °F 25.6 °F 30.2 °F 93% 30.48 in 6.2 mi NE 6.9 mph - N/A   Mostly Cloudy
6:00 AM 32.0 °F 26.4 °F 28.4 °F 87% 30.48 in 6.2 mi ENE 5.8 mph - N/A   Scattered Clouds
6:30 AM 30.2 °F 23.4 °F 28.4 °F 93% 30.48 in 6.2 mi NE 6.9 mph - N/A   Unknown
7:00 AM 32.0 °F 24.8 °F 28.4 °F 87% 30.51 in 6.2 mi NE 8.1 mph - N/A   Unknown
7:30 AM 32.0 °F 24.8 °F 28.4 °F 87% 30.51 in 6.2 mi NE 8.1 mph - N/A   Unknown
8:00 AM 30.2 °F 25.4 °F 26.6 °F 86% 30.51 in 6.2 mi NNE 4.6 mph - N/A   Unknown
8:30 AM 30.2 °F 23.4 °F 26.6 °F 86% 30.51 in 6.2 mi NE 6.9 mph - N/A   Unknown
9:00 AM 32.0 °F 24.8 °F 28.4 °F 87% 30.51 in 6.2 mi NE 8.1 mph - N/A   Unknown
9:30 AM 32.0 °F 24.8 °F 28.4 °F 87% 30.54 in 6.2 mi NE 8.1 mph - N/A   Unknown
10:00 AM 33.8 °F 27.0 °F 28.4 °F 81% 30.54 in 6.2 mi NE 8.1 mph - N/A   Unknown
10:30 AM 35.6 °F 29.2 °F 28.4 °F 75% 30.54 in 6.2 mi NE 8.1 mph - N/A   Unknown
11:00 AM 35.6 °F 30.7 °F 28.4 °F 75% 30.57 in 6.2 mi NE 5.8 mph - N/A   Unknown
11:30 AM 35.6 °F 29.9 °F 28.4 °F 75% 30.54 in 6.2 mi ENE 6.9 mph - N/A   Unknown
12:00 PM 37.4 °F 32.1 °F 28.4 °F 70% 30.54 in 6.2 mi ENE 6.9 mph - N/A   Unknown
12:30 PM 37.4 °F 32.1 °F 28.4 °F 70% 30.54 in 6.2 mi NE 6.9 mph - N/A   Unknown
1:00 PM 37.4 °F 31.4 °F 30.2 °F 75% 30.54 in 6.2 mi NE 8.1 mph - N/A   Unknown
1:30 PM 39.2 °F 35.0 °F 28.4 °F 65% 30.54 in 6.2 mi NE 5.8 mph - N/A   Unknown
2:00 PM 39.2 °F 35.0 °F 28.4 °F 65% 30.51 in 6.2 mi NE 5.8 mph - N/A   Unknown
2:30 PM 39.2 °F 35.0 °F 28.4 °F 65% 30.51 in 6.2 mi NNE 5.8 mph - N/A   Unknown
3:00 PM 39.2 °F 35.9 °F 26.6 °F 61% 30.51 in 6.2 mi NE 4.6 mph - N/A   Unknown
3:30 PM 39.2 °F 35.0 °F 28.4 °F 65% 30.51 in 6.2 mi NE 5.8 mph - N/A   Unknown
4:00 PM 37.4 °F 33.8 °F 26.6 °F 65% 30.51 in 6.2 mi NE 4.6 mph - N/A   Unknown
4:30 PM 35.6 °F 32.8 °F 26.6 °F 70% 30.51 in 6.2 mi NE 3.5 mph - N/A   Unknown
5:00 PM 35.6 °F 32.8 °F 26.6 °F 70% 30.51 in 6.2 mi NNE 3.5 mph - N/A   Unknown
5:30 PM 32.0 °F - 26.6 °F 80% 30.51 in 6.2 mi Calm Calm - N/A   Unknown
6:00 PM 32.0 °F - 26.6 °F 80% 30.51 in 6.2 mi Variable 2.3 mph - N/A   Unknown
6:30 PM 32.0 °F - 26.6 °F 80% 30.51 in 6.2 mi Variable 2.3 mph - N/A   Unknown
7:00 PM 28.4 °F - 24.8 °F 86% 30.51 in 6.2 mi Variable 1.2 mph - N/A   Unknown
7:30 PM 28.4 °F 24.6 °F 26.6 °F 93% 30.51 in 6.2 mi Variable 3.5 mph - N/A   Unknown
8:00 PM 28.4 °F - 24.8 °F 86% 30.54 in 5.0 mi Variable 2.3 mph - N/A   Unknown
8:30 PM 26.6 °F - 24.8 °F 93% 30.51 in 4.3 mi Variable 2.3 mph - N/A   Unknown
9:00 PM 26.6 °F 22.6 °F 24.8 °F 93% 30.51 in 6.2 mi SSE 3.5 mph - N/A   Unknown
9:30 PM 24.8 °F 20.5 °F 23.0 °F 93% 30.51 in 6.2 mi SE 3.5 mph - N/A   Unknown
10:00 PM 24.8 °F - 23.0 °F 93% 30.51 in 6.2 mi Variable 2.3 mph - N/A   Unknown
10:30 PM 24.8 °F - 23.0 °F 93% 30.51 in 5.6 mi Variable 2.3 mph - N/A   Unknown
11:00 PM 24.8 °F - 23.0 °F 93% 30.51 in 5.6 mi Calm Calm - N/A   Unknown
11:30 PM 24.8 °F - 23.0 °F 93% 30.51 in 3.1 mi North 1.2 mph - N/A   Mist